Location: Newark
(35.8833°N, 14.5000°E)
Time: 22:16:44
(UTC+00:00)

ISS - Visible Passes

Search period start: 15 October 2019 00:00
Search period end: 25 October 2019 00:00
Orbit: 411 x 421 km, 51.6° (Epoch: 15 October)

Date Brightness Start Highest point End Pass type
(mag) Time Alt. Az. Time Alt. Az. Time Alt. Az.
23 Oct -1.0 03:59:50 10° S 04:02:18 19° SE 04:04:46 10° E visible
24 Oct -0.5 03:13:33 10° SE 03:13:56 10° SE 03:14:18 10° ESE visible
24 Oct -3.7 04:46:52 10° WSW 04:50:14 66° NW 04:53:35 10° NE visible
